Вернуться в каталог

FENGYUN 1C DEB

АктивенSSO
NORAD 29930·DEBRIS·🇨🇳 China

Запущен May 10, 1999 с Taiyuan Satellite Launch Center

Loading…

Ближайшие Пролёты (ближайшие 24 часа)

TLE

СвежийSource: Space-Track

Эпоха: Sep 14, 2026, 14:08 UTC

1 29930U 99025JC  26257.58938927  .00000328  00000-0  15160-3 0  9990
2 29930  99.0093 150.9499 0163239 345.0899 129.7652 14.21094991 18072

Отслеживайте FENGYUN 1C DEB в реальном времени с AllMySat

Download on the App Store